PulseSat

PulseSat

GSAT0103 (PRN E19)

Last updated on Jan. 16, 2019, 2:58 a.m. UTC

1 38857U 12055A   19014.28114677  .00000084  00000-0  00000-0 0  9997
2 38857  54.9214 176.1134 0001484 232.8886 127.0790  1.70473747 38945
UTC
Height (km)
Latitude
Longitude
Inclination
Orbital Period

Next 30 passes for location: Hong Kong

Rise time Rise Azimuth (degrees) Set time Set Azimuth (degrees) Duration Max altitude (degrees)

No matching passes for this satellites

PulseSat

PulseSat is the new satellites software and hardware trackering solution by Pulsely.
Satellite Two Line Element Set source: US Air Force Space Command

Download PulseSat for iOS
© 2017 Pulsely Limited